Location: Sabalos
(43.2860°N, 0.1414°E)
Time: 10:46:50
(UTC+00:00)

ERS-1 Rocket - Pass Details

Date: 05 July 2020
Orbit: 752 x 758 km, 98.5° (Epoch: 05 August)

Event Time Altitude Azimuth Distance (km) Brightness Sun altitude
Exits shadow 20:56:50 15° 134° (SE) 1,948 4.4 -11.3°
Maximum altitude 21:00:37 41° 69° (ENE) 1,088 3.6 -11.7°
Drops below altitude 10° 21:05:20 10° 0° (N) 2,297 6.2 -12.3°
Sets 21:07:44 0° 354° (N) 3,226 7.2 -12.6°
